INNOSAT 3 (RS92S0)

Last updated on Tue Aug 25 2026 00:03:14 GMT+0000 (Coordinated Universal Time)

1 64894U 25155U 26236.58508740 .00043633 00000+0 81113-3 0 9990 2 64894 97.4528 209.9916 0001216 351.3469 8.7761 15.48775384 91534
UTC large
Height (km)
Speed (km/s)
/
Latitude / Longitude
Inclination (degrees)
Orbital Period (minutes)
Azimuth
Elevation
Range (km)
Doppler Factor

Next 0 passes for location: London (51.5072 / 0.1276)

No passes found over London.
INNOSAT 3 (RS92S0)